Location: Newark
(46.7000°N, 60.6000°W)
Time: 21:50:35
(UTC+00:00)

Vanguard 1 Rocket - Pass Details

Date: 09 November 2020
Orbit: 656 x 4221 km, 34.3° (Epoch: 30 November)

Event Time Altitude Azimuth Distance (km) Brightness Sun altitude
Rises 12:08:48 0° 246° (WSW) 5,500 11.1 9.7°
Reaches altitude 10° 12:13:37 10° 237° (WSW) 3,885 10.5 10.3°
Maximum altitude 12:21:04 29° 182° (S) 1,906 9.7 11.3°
Drops below altitude 10° 12:25:53 10° 123° (ESE) 2,447 12.2 11.9°
Sets 12:28:12 0° 111° (ESE) 3,187 11.6 12.2°
